Dewpoint
-6 -8 -5 -4 -4 -4 -5 -4 -4 -3 -3 -4 -3 -2 -2 -1 -1 -1 -2 -2 -2 -2 -2 -2 -3 -3 -3 -4 -3 -5 -5 -4 -1 1 2 1 1 -1 -2 -3 -1 -0 -0 0 -0 1 1 -5 -7 -7 -9 -7 -7 -7
-7 -9 -5 -4 -4 -5 -4 -3 -4 -5 -5 -4 -4 -3 -2 -2 -2 -2 -3 -3 -3 -3 -4 -4 -5 -3 -4 -5 -3 -4 -5 -5 -4 1 0 0 1 -3 -3 -1 -4 -2 -3 -1 -1 -1 -5 -7 -8 -8 -8 -7 -6 -7
-7 -5 -4 -3 -5 -5 -4 -4 -6 -8 -12 -15 -15 -15 -13 -10 -7 -5 -3 -4 -4 -4 -5 -5 -6 -9 -8 -8 -7 -3 -4 -4 -5 -5 -3 -0 1 -0 -0 -3 -5 -6 -6 -4 -3 -6 -5 -7 -7 -6 -7 -8 -7 -6
-6 -6 -4 -4 -5 -5 -5 -7 -13 -17 -17 -14 -11 -7 -6 -5 -4 -4 -5 -5 -5 -5 -4 -7 -9 -9 -10 -10 -8 -6 -6 -5 -5 -4 -3 -3 -4 -4 -1 -1 -3 -6 -6 -5 -5 -7 -7 -7 -5 -6 -6 -7 -7 -7
-6 -5 -4 -4 -5 -5 -6 -11 -18 -17 -16 -16 -16 -15 -15 -13 -6 -5 -5 -6 -9 -6 -5 -7 -7 -10 -12 -12 -13 -11 -6 -4 -3 -3 -3 -3 -4 -4 -4 -4 -3 -3 -3 -3 -2 -7 -6 -5 -4 -5 -6 -6 -6 -6
-9 -5 -5 -5 -6 -6 -9 -16 -18 -19 -20 -18 -15 -9 -6 -6 -5 -5 -6 -13 -8 -6 -4 -5 -7 -9 -12 -13 -11 -9 -6 -3 -3 -3 -3 -3 -3 -3 -2 -3 -6 -6 -7 -5 -4 -3 -4 -4 -4 -5 -6 -6 -6 -6
-8 -5 -5 -6 -6 -9 -15 -18 -20 -20 -18 -9 -6 -6 -6 -7 -5 -6 -8 -6 -8 -6 -5 -5 -6 -5 -2 -6 -9 -8 -8 -4 -3 -3 -2 -3 -2 -2 -2 -2 -7 -6 -5 -6 -6 -6 -5 -4 -4 -5 -5 -5 -5 -5
-6 -6 -6 -7 -10 -15 -18 -20 -15 -13 -9 -7 -7 -6 -8 -14 -6 -6 -12 -8 -7 -5 -5 -6 -6 -8 -7 -7 -6 -6 -6 -5 -3 -2 -1 -1 -2 -1 -1 -5 -6 -6 -6 -8 -9 -12 -11 -9 -8 -8 -6 -5 -5 -5
-6 -8 -9 -12 -15 -18 -20 -18 -16 -10 -7 -6 -6 -11 -17 -18 -9 -9 -7 -6 -7 -5 -6 -6 -8 -10 -9 -6 -5 -2 -2 -1 -2 -2 -4 -3 -2 -1 -4 -7 -7 -7 -5 -5 -5 -5 -6 -6 -6 -6 -6 -4 -5 -4
-7 -10 -11 -14 -18 -21 -21 -18 -9 -6 -7 -7 -11 -15 -17 -9 -5 -8 -12 -7 -5 -4 -5 -6 -10 -9 -8 -3 -3 -2 -2 -1 -1 -2 -3 -1 -3 -5 -6 -6 -6 -6 -6 -6 -6 -6 -6 -6 -7 -7 -5 -4 -5 -4
-8 -10 -12 -16 -21 -21 -15 -10 -7 -6 -8 -8 -8 -11 -13 -11 -8 -8 -8 -4 -4 -4 -4 -5 -7 -8 -9 -6 -6 -2 -1 -1 -1 -4 -2 -3 -3 -6 -6 -6 -6 -6 -6 -6 -6 -6 -6 -6 -6 -4 -5 -4 -4 -4
-7 -10 -13 -19 -19 -16 -12 -8 -6 -6 -7 -7 -6 -6 -7 -6 -5 -6 -5 -3 -4 -4 -3 -3 -5 -6 -7 -7 -2 -1 -1 -1 -0 -3 -1 -2 -5 -5 -6 -5 -5 -5 -5 -6 -6 -6 -5 -5 -6 -6 -5 -4 -4 -4
-7 -10 -18 -21 -17 -13 -8 -7 -8 -7 -7 -7 -7 -8 -6 -7 -7 -5 -5 -5 -5 -5 -5 -5 -4 -2 -4 -2 -1 -0 -0 -1 -3 -0 -1 -4 -6 -5 -6 -6 -5 -4 -4 -4 -5 -6 -6 -5 -4 -3 -3 -3 -4 -4
-8 -18 -21 -15 -14 -8 -8 -8 -8 -7 -6 -7 -8 -8 -9 -6 -5 -7 -6 -5 -6 -6 -6 -6 -5 -2 -2 -2 -1 0 -2 -1 0 -1 -2 -6 -6 -6 -5 -5 -5 -4 -3 -5 -5 -4 -4 -4 -3 -3 -3 -3 -4 -3
-20 -17 -13 -15 -11 -9 -9 -8 -9 -11 -7 -8 -8 -8 -11 -7 -8 -8 -8 -8 -8 -7 -7 -6 -5 -4 -1 -1 -1 -2 -1 -2 -3 -4 -6 -7 -7 -7 -7 -6 -5 -5 -4 -3 -3 -3 -3 -3 -2 -1 -1 -1 -2 -4
-13 -13 -13 -12 -12 -10 -8 -14 -14 -11 -7 -7 -7 -8 -8 -9 -9 -9 -8 -7 -8 -7 -8 -7 -5 -2 -1 -1 -1 -2 -4 -4 -6 -6 -7 -8 -8 -8 -7 -7 -6 -5 -5 -4 -4 -3 -3 -3 -3 -3 -3 -2 -3 -3
-11 -8 -9 -9 -8 -11 -16 -15 -11 -10 -7 -6 -7 -6 -6 -7 -7 -7 -7 -8 -8 -8 -7 -5 -3 -3 -4 -4 -5 -6 -7 -7 -7 -8 -8 -8 -8 -8 -8 -7 -7 -6 -6 -6 -5 -5 -5 -5 -5 -4 -4 -4 -4 -5
-8 -9 -9 -8 -13 -17 -15 -11 -10 -7 -7 -7 -7 -7 -7 -8 -8 -8 -9 -9 -9 -8 -6 -5 -6 -5 -5 -5 -6 -6 -8 -8 -8 -8 -8 -8 -8 -7 -7 -7 -7 -7 -7 -7 -7 -7 -6 -6 -6 -6 -6 -6 -8 -9
-10 -11 -12 -16 -16 -14 -13 -9 -8 -7 -7 -7 -7 -7 -8 -9 -9 -9 -10 -9 -9 -8 -7 -8 -8 -8 -9 -7 -7 -7 -7 -8 -8 -8 -8 -7 -7 -7 -7 -7 -7 -7 -7 -7 -7 -7 -7 -8 -9 -10 -12 -13 -14 -14
-11 -14 -17 -16 -14 -14 -12 -9 -9 -8 -8 -8 -8 -10 -10 -10 -10 -10 -10 -9 -8 -9 -10 -10 -10 -11 -11 -10 -7 -8 -8 -8 -8 -8 -8 -8 -8 -7 -7 -7 -7 -7 -7 -8 -8 -7 -7 -8 -8 -9 -11 -12 -13 -12
-16 -17 -15 -14 -13 -12 -11 -10 -9 -10 -9 -9 -10 -11 -11 -10 -9 -10 -11 -10 -11 -11 -10 -12 -12 -11 -10 -8 -7 -7 -7 -7 -7 -8 -8 -8 -8 -8 -8 -8 -7 -7 -7 -8 -8 -8 -8 -8 -8 -8 -8 -8 -8 -8
-15 -13 -13 -13 -12 -11 -10 -11 -10 -10 -10 -10 -11 -11 -11 -11 -11 -10 -11 -12 -12 -12 -12 -12 -12 -11 -9 -8 -8 -8 -8 -8 -8 -8 -8 -8 -8 -8 -8 -8 -9 -9 -9 -10 -10 -10 -10 -11 -11 -11 -10 -11 -11 -12
-13 -13 -13 -13 -12 -12 -13 -12 -11 -11 -15 -13 -12 -13 -13 -12 -11 -10 -11 -12 -12 -12 -12 -12 -11 -10 -10 -9 -9 -8 -8 -8 -9 -9 -9 -9 -9 -9 -10 -10 -11 -11 -12 -13 -13 -13 -13 -13 -13 -13 -13 -13 -13 -13
-13 -13 -13 -13 -12 -14 -13 -12 -12 -13 -13 -16 -17 -14 -14 -12 -13 -11 -11 -12 -12 -12 -12 -11 -11 -10 -10 -9 -10 -10 -10 -10 -10 -11 -11 -11 -12 -13 -13 -13 -13 -13 -13 -13 -13 -13 -13 -13 -13 -13 -13 -13 -13 -14
-14 -13 -13 -13 -12 -14 -19 -19 -19 -18 -17 -21 -18 -15 -15 -14 -15 -14 -12 -12 -13 -12 -12 -12 -13 -12 -12 -12 -12 -12 -12 -12 -13 -13 -13 -13 -13 -13 -13 -13 -13 -13 -13 -13 -13 -13 -13 -13 -13 -13 -13 -13 -13 -13
-16 -12 -14 -14 -13 -15 -17 -16 -18 -18 -20 -18 -18 -14 -16 -18 -17 -15 -13 -14 -13 -13 -13 -14 -14 -14 -13 -13 -13 -13 -13 -13 -13 -13 -13 -13 -13 -13 -13 -13 -13 -13 -13 -13 -13 -13 -13 -13 -13 -13 -13 -13 -13 -13
-16 -15 -12 -12 -12 -12 -14 -14 -14 -17 -20 -17 -19 -19 -21 -18 -17 -15 -14 -13 -13 -14 -14 -14 -15 -15 -14 -14 -13 -13 -13 -13 -13 -13 -13 -13 -13 -13 -13 -13 -13 -13 -13 -13 -13 -13 -13 -13 -13 -13 -13 -13 -13 -13
-12 -12 -15 -13 -13 -13 -17 -19 -20 -18 -18 -13 -15 -19 -19 -18 -16 -15 -14 -14 -14 -14 -15 -15 -15 -14 -14 -13 -13 -13 -13 -13 -13 -13 -13 -13 -13 -13 -13 -13 -13 -13 -13 -13 -13 -13 -13 -13 -13 -13 -13 -13 -13 -13
-12 -12 -12 -14 -14 -14 -15 -16 -15 -13 -13 -13 -17 -17 -15 -15 -15 -15 -14 -14 -14 -14 -15 -16 -16 -14 -13 -13 -13 -13 -13 -13 -13 -14 -14 -15 -15 -14 -13 -13 -12 -12 -12 -12 -12 -13 -13 -12 -13 -13 -13 -13 -13 -13
-13 -13 -13 -14 -17 -17 -14 -14 -13 -13 -14 -14 -15 -15 -15 -15 -15 -14 -14 -14 -15 -15 -15 -16 -16 -16 -15 -14 -14 -15 -16 -16 -16 -16 -16 -16 -16 -17 -17 -17 -16 -14 -13 -12 -12 -12 -12 -12 -12 -12 -13 -13 -13 -13
-13 -13 -14 -14 -15 -14 -14 -13 -13 -13 -13 -14 -15 -15 -15 -15 -15 -14 -15 -15 -15 -16 -16 -16 -16 -17 -17 -17 -16 -16 -16 -16 -16 -16 -16 -16 -16 -16 -17 -17 -17 -17 -17 -16 -14 -13 -12 -12 -12 -13 -13 -13 -13 -13
-14 -14 -14 -18 -14 -13 -13 -13 -13 -13 -13 -13 -14 -14 -14 -14 -15 -14 -14 -15 -15 -16 -16 -17 -17 -17 -16 -16 -16 -16 -15 -15 -15 -14 -14 -14 -14 -14 -15 -16 -16 -17 -17 -17 -17 -16 -14 -13 -13 -13 -13 -13 -13 -13
-14 -14 -14 -14 -14 -14 -14 -14 -13 -13 -13 -13 -13 -13 -14 -14 -15 -15 -14 -14 -15 -15 -16 -16 -16 -16 -16 -15 -15 -15 -14 -14 -13 -13 -13 -13 -14 -14 -14 -15 -16 -16 -17 -17 -17 -17 -16 -14 -13 -13 -13 -13 -13 -13
Wind_Speed
13 10 9 9 9 10 8 6 5 5 7 6 6 6 6 7 7 8 12 10 11 12 19 22 20 16 13 9 3 7 10 3 1 3 3 4 4 5 3 4 6 7 7 4 3 3 8 6 3 4 3 7 7 7
12 11 12 10 10 9 8 7 6 6 7 8 9 9 10 11 13 13 13 13 14 17 20 23 17 19 30 34 23 11 10 10 5 2 1 3 3 2 4 3 0 3 6 5 9 6 4 3 9 11 15 14 12 10
11 13 13 12 12 10 9 8 8 9 9 9 9 9 9 9 9 10 12 12 16 21 28 27 27 24 28 42 34 16 18 21 16 16 6 3 6 2 3 5 6 5 6 4 1 5 6 8 8 18 17 17 16 13
9 15 13 14 12 11 10 10 9 8 9 9 10 10 11 11 11 10 12 13 14 15 10 10 21 25 23 25 24 32 42 35 29 22 14 6 6 10 4 4 4 5 1 3 5 8 12 3 19 22 25 21 17 15
14 16 14 14 12 11 10 9 9 9 10 12 13 14 14 14 13 12 15 18 20 20 8 16 20 27 31 31 32 29 34 38 30 18 9 10 11 12 12 11 17 6 7 8 8 6 5 19 27 33 28 26 16 13
16 17 15 14 12 11 11 11 11 11 12 14 14 15 15 15 14 15 7 6 11 22 11 4 7 18 20 21 37 36 36 33 30 14 14 20 21 11 5 10 22 33 41 40 22 30 34 38 35 20 22 21 15 14
17 16 16 14 13 12 11 11 11 12 13 14 16 16 18 18 16 15 9 6 11 7 6 8 8 6 9 17 24 30 34 27 26 31 27 29 14 19 10 22 15 20 21 23 23 26 27 18 16 20 26 25 18 15
16 15 15 13 12 11 10 10 11 12 14 17 17 20 23 23 25 29 33 32 28 23 9 4 4 8 9 6 9 13 13 14 15 17 8 14 17 15 12 28 32 34 37 41 48 49 50 44 42 40 29 27 24 18
16 14 13 11 10 10 10 11 12 13 16 18 23 24 28 22 9 9 5 8 14 22 6 6 5 4 5 18 8 6 12 5 10 6 9 9 6 9 21 38 38 31 33 32 34 39 41 37 39 38 30 27 28 21
14 12 11 10 10 10 9 11 12 14 17 21 23 9 5 1 5 19 16 7 14 19 18 6 9 5 9 9 6 4 11 4 3 6 10 5 13 39 41 45 36 27 32 40 38 40 41 39 44 45 36 33 29 21
14 12 11 10 9 9 11 12 12 15 18 11 4 6 11 18 26 6 6 7 10 5 9 12 30 15 13 9 6 7 3 3 3 4 7 4 5 16 39 46 53 48 42 41 41 42 41 38 36 34 30 29 27 22
14 12 10 10 10 10 11 13 11 15 10 14 16 27 20 4 6 4 4 6 5 4 3 1 6 16 10 15 9 9 4 4 6 9 4 4 2 18 22 21 25 31 36 46 46 46 41 37 38 41 35 30 25 19
15 12 11 10 9 11 10 15 13 11 15 15 3 4 4 5 3 4 3 3 4 11 8 15 6 5 10 14 9 4 6 5 5 4 4 1 11 20 27 28 30 28 23 32 41 40 40 34 23 24 25 22 19 18
12 11 9 9 10 9 15 10 10 10 5 3 3 5 4 4 2 1 3 3 8 10 20 21 9 5 7 4 3 4 4 2 4 4 2 5 21 25 24 23 20 18 12 20 26 25 22 18 18 18 18 17 17 17
11 9 9 10 10 11 10 12 13 12 6 5 5 5 5 3 7 10 10 10 16 22 18 11 10 8 3 3 3 2 3 4 2 3 3 16 22 19 16 10 3 4 7 11 14 18 21 22 22 21 18 18 18 19
8 9 8 6 6 10 12 14 15 7 6 6 8 4 5 5 6 9 13 14 19 11 18 9 4 5 6 2 2 1 2 2 3 3 13 15 15 14 12 10 10 11 12 15 17 18 21 22 24 24 23 23 21 20
7 9 6 8 10 13 14 13 5 6 6 5 6 7 10 12 12 11 16 14 17 11 3 4 4 2 3 2 3 3 2 3 6 10 12 12 14 15 16 18 20 21 22 22 22 22 25 26 26 28 28 26 25 24
11 9 10 10 12 12 10 5 5 5 7 8 5 4 6 11 14 16 17 18 10 4 4 3 6 3 3 3 2 2 5 8 11 14 15 17 18 21 25 28 29 30 30 30 30 29 29 30 32 31 29 28 27 26
7 7 9 10 9 7 3 4 5 4 7 4 6 7 7 11 15 17 14 13 11 9 7 4 3 3 3 4 3 8 6 6 12 16 18 19 21 23 25 27 28 29 29 29 29 30 29 29 28 26 24 23 24 21
7 9 9 8 9 3 3 4 4 4 3 2 4 5 3 6 13 15 14 10 8 5 5 3 3 8 7 9 10 11 13 13 15 19 20 19 19 21 23 24 25 25 26 26 26 25 25 25 23 20 18 18 18 18
6 6 7 9 5 7 3 3 4 3 4 3 3 3 2 4 10 19 18 13 9 6 4 8 11 7 7 14 12 11 12 11 15 17 16 18 17 18 19 19 18 20 21 21 22 22 21 21 18 16 15 16 14 13
4 6 7 4 4 3 3 2 2 3 3 3 2 2 2 3 6 8 10 12 6 8 8 11 11 14 18 17 17 16 14 14 14 15 14 14 16 17 18 17 16 19 20 19 17 17 17 16 13 12 10 11 10 9
5 3 3 3 4 3 2 2 1 1 1 3 0 2 2 3 6 5 5 6 6 12 9 10 12 15 18 17 15 15 14 12 15 15 14 14 16 16 15 15 15 15 16 16 14 12 12 11 10 9 9 7 7 6
1 2 2 1 1 1 1 1 1 1 1 3 2 2 3 4 4 5 3 3 9 11 14 12 9 12 15 16 18 17 16 14 15 16 14 12 13 15 14 14 13 14 15 13 11 11 10 10 10 9 8 7 7 7
1 2 1 2 3 2 5 4 5 4 1 2 2 3 3 4 2 3 1 4 9 11 11 12 11 12 14 15 15 15 13 11 11 14 14 13 12 11 13 13 12 13 12 9 10 10 10 9 9 8 8 7 7 7
3 3 2 2 2 2 2 1 1 1 1 2 1 3 3 3 4 1 2 6 7 9 9 8 8 8 10 10 10 11 12 12 9 11 13 11 10 10 11 10 9 11 10 10 9 8 8 8 8 8 8 8 8 8
3 2 2 1 1 2 3 2 2 3 2 1 2 3 3 4 0 1 2 4 4 6 7 7 7 7 8 8 9 10 11 11 10 12 12 10 9 9 9 9 9 9 8 8 8 8 7 8 8 8 8 9 9 9
3 2 4 1 3 3 3 2 2 1 2 1 1 3 4 5 2 1 2 3 4 6 7 7 7 7 8 9 10 11 10 10 10 10 9 10 10 10 10 10 9 8 8 7 7 6 6 7 6 6 7 8 8 8
3 3 3 3 3 4 3 2 1 1 3 1 3 2 2 2 3 4 4 4 5 7 4 5 8 10 8 9 10 10 9 9 9 9 10 11 10 11 12 12 12 11 10 9 8 7 7 8 8 8 8 9 10 10
2 3 3 3 3 0 1 2 4 4 4 4 5 7 7 7 5 4 4 4 5 6 6 6 8 10 10 9 10 10 11 10 10 11 12 14 14 14 13 13 13 13 12 11 10 9 9 9 10 11 11 11 12 11
4 3 3 3 3 3 5 6 6 5 4 6 8 10 8 6 7 6 5 5 6 6 6 7 7 10 10 10 10 11 12 12 12 12 13 14 14 14 14 14 14 14 13 12 11 11 10 10 10 10 11 11 12 12
2 2 4 3 3 5 5 2 3 3 3 3 3 3 4 3 3 2 3 4 6 6 7 9 8 9 9 10 9 9 9 10 10 9 10 11 12 13 14 14 15 15 15 14 14 13 12 11 11 11 11 11 10 9
4 5 5 5 4 3 2 3 2 3 3 2 2 2 2 2 3 3 6 5 5 6 6 7 8 7 6 6 5 5 5 5 5 7 9 11 12 13 14 14 14 15 15 15 15 14 14 13 12 12 12 10 9 8
Wind_Direction
217 213 195 194 222 243 250 254 279 266 264 270 267 257 246 222 234 269 276 267 271 268 271 262 253 252 244 227 220 301 344 318 254 227 229 234 226 230 231 207 179 178 163 191 160 211 269 200 113 171 245 311 296 279
218 204 199 207 223 225 236 241 258 273 273 269 267 264 259 266 274 284 284 282 280 270 264 277 271 256 244 253 254 238 231 294 283 289 291 308 290 260 206 251 115 248 198 183 191 211 255 250 268 280 305 301 301 286
221 197 200 211 222 230 228 244 262 273 278 280 278 276 274 272 274 274 277 281 287 290 292 266 261 275 265 253 251 234 243 245 256 267 324 272 266 339 235 229 245 252 195 215 146 263 242 275 330 347 305 296 298 294
223 200 204 214 225 228 234 253 264 267 273 277 281 280 278 277 273 272 275 274 268 273 275 282 282 269 282 260 254 248 251 251 255 263 256 248 258 239 246 287 253 253 201 221 256 281 306 157 350 343 328 314 283 285
212 203 210 218 225 231 244 254 260 268 277 284 287 288 289 291 296 292 277 260 255 239 270 287 287 265 264 260 253 245 243 245 241 241 237 247 247 251 257 261 248 233 253 258 259 259 275 290 321 324 317 313 291 273
203 204 209 213 224 235 248 259 268 279 288 293 297 300 300 300 303 310 318 283 262 260 268 294 291 275 262 246 237 235 236 236 232 238 242 246 231 215 254 256 263 243 240 252 267 281 293 291 296 303 320 319 296 274
201 202 207 219 227 236 249 264 277 287 295 300 302 301 299 292 281 263 243 242 283 340 283 293 294 286 322 236 238 242 246 235 232 239 239 243 238 216 244 254 234 235 237 268 259 274 288 277 270 298 306 309 293 274
197 202 206 215 230 244 259 272 285 293 298 301 306 298 294 292 283 270 270 264 257 263 265 253 264 282 243 223 222 219 215 221 231 235 224 219 229 221 248 258 255 247 243 244 252 256 254 262 271 277 284 287 277 263
197 203 209 222 236 250 265 280 291 302 303 301 296 301 301 291 274 275 183 305 243 219 232 226 196 269 213 232 234 219 212 226 220 225 227 205 217 225 234 245 253 243 237 244 249 252 256 258 265 268 273 266 259 253
200 207 217 232 247 259 278 289 296 298 303 302 308 304 268 211 299 303 297 234 205 213 217 240 210 232 216 184 220 232 203 216 243 219 178 226 235 240 250 253 255 249 241 240 242 252 254 253 256 260 255 248 250 248
204 217 229 246 256 268 276 286 301 306 304 322 292 251 281 288 296 244 242 231 179 221 221 238 225 237 236 232 238 247 250 200 241 228 190 229 252 238 253 254 258 255 252 248 247 249 249 256 260 259 258 248 241 235
209 222 238 244 252 266 282 294 303 300 300 296 289 290 296 260 224 225 218 230 182 226 243 260 267 213 227 219 215 210 217 212 245 153 222 247 268 339 326 306 279 269 258 246 243 242 245 249 261 268 266 238 226 223
214 226 235 244 261 279 293 293 292 284 297 306 294 270 254 234 244 235 308 320 335 346 358 336 324 282 195 204 218 220 218 233 114 213 234 205 334 331 331 321 309 292 278 253 240 238 243 249 246 242 226 208 201 196
219 232 239 255 274 276 291 295 298 294 297 268 254 265 197 234 223 240 285 268 289 284 308 311 285 268 222 196 242 243 229 196 242 231 253 347 337 330 327 320 310 301 279 231 228 222 221 213 201 187 187 178 173 172
221 235 255 269 274 273 281 290 288 295 212 222 231 242 241 278 298 288 290 288 302 305 305 304 270 238 235 255 216 292 272 261 13 334 322 330 338 338 341 338 328 146 153 166 179 186 181 175 173 170 167 159 161 161
230 257 277 259 250 278 291 297 299 243 204 216 231 265 280 298 290 301 296 301 318 311 308 266 261 272 221 230 204 270 344 304 338 333 336 350 360 12 29 50 77 95 108 118 133 144 151 152 150 145 143 141 142 147
237 257 255 279 290 297 304 297 223 204 216 228 248 256 275 286 278 296 306 304 310 303 238 238 239 297 312 26 20 17 17 342 3 16 25 30 41 53 68 76 82 92 98 104 111 116 117 119 121 120 114 116 124 127
250 264 269 281 298 311 305 209 215 223 239 243 244 276 290 303 301 311 308 307 304 250 268 325 327 338 3 5 6 53 72 83 73 65 62 65 71 78 82 84 85 87 90 94 98 103 106 107 105 105 111 117 121 121
252 258 276 295 302 310 251 214 227 255 238 264 262 275 304 314 316 317 316 309 272 246 304 9 33 9 337 344 37 92 99 99 81 76 76 77 81 83 84 86 89 91 94 98 100 99 100 102 102 105 109 113 109 109
261 275 289 283 303 255 234 218 224 255 264 262 271 294 297 352 355 9 17 22 71 72 45 36 12 337 317 348 70 111 108 105 98 88 78 79 81 83 82 84 87 91 92 91 91 92 94 95 97 101 104 105 109 105
270 275 275 297 276 217 250 224 232 253 281 275 292 315 235 260 2 17 13 26 55 33 39 5 356 29 81 94 115 108 102 106 97 97 95 85 80 80 81 82 87 90 91 91 92 93 95 92 94 98 102 98 95 100
261 276 288 260 231 226 235 225 251 263 268 284 290 316 1 21 353 5 15 30 51 18 16 11 39 68 85 88 87 94 101 106 104 102 100 102 95 91 88 88 90 88 86 83 84 86 87 86 84 84 82 81 77 78
293 270 221 215 221 215 226 298 220 280 94 325 298 44 18 15 2 14 63 38 29 13 27 42 60 77 85 89 92 90 86 88 92 92 93 92 92 91 92 88 83 82 81 77 73 74 76 75 77 73 71 68 63 56
294 195 207 178 346 217 306 97 33 352 62 24 39 18 341 348 7 66 70 39 6 31 48 56 73 82 87 85 81 80 79 83 90 91 87 92 93 88 84 82 79 77 71 66 66 65 65 65 65 62 59 49 39 33
195 2 354 9 26 32 30 8 354 42 39 320 55 349 335 352 65 56 52 12 10 26 41 52 61 74 83 82 82 82 84 81 89 97 91 77 68 76 78 73 70 68 66 58 57 52 49 46 43 42 38 34 32 24
87 28 73 140 338 88 172 52 39 215 155 17 268 325 356 71 59 3 359 351 4 17 34 48 60 70 85 88 91 92 87 81 76 88 86 80 80 72 71 69 66 65 56 47 42 39 37 34 31 27 27 22 17 13
98 247 86 83 134 122 86 86 95 98 80 69 286 24 62 70 249 291 341 13 31 35 43 49 53 61 76 87 90 87 87 89 97 85 77 71 65 59 54 49 47 47 39 30 23 20 18 18 14 9 4 3 7 3
102 120 151 138 89 50 122 64 73 126 244 30 94 42 128 165 180 38 56 76 76 77 70 71 79 96 104 107 106 104 102 95 81 76 72 63 58 51 45 37 30 23 13 2 3 1 358 355 4 3 358 353 349 348
106 127 130 70 81 62 49 123 169 52 345 348 115 139 121 100 127 140 123 111 115 105 91 79 85 92 106 109 109 105 95 85 84 78 72 63 53 43 34 26 22 21 15 7 357 350 341 338 344 346 339 336 333 331
127 131 114 89 89 52 42 89 92 78 59 97 108 116 104 101 91 115 123 125 126 117 107 107 96 95 92 99 104 104 96 86 81 77 67 54 43 37 32 29 23 19 16 12 7 356 347 337 328 328 327 325 326 325
125 129 100 82 100 103 117 116 104 89 83 87 116 123 118 112 89 87 97 112 115 114 114 117 111 108 102 101 103 97 87 78 70 63 56 48 42 36 30 26 22 19 15 12 6 1 355 344 336 331 327 323 321 319
101 95 127 108 124 129 131 111 90 94 102 93 91 95 110 107 95 120 125 120 130 112 116 117 115 111 105 101 96 90 82 73 57 46 44 35 29 22 16 14 11 9 7 5 2 359 355 350 345 340 336 332 332 332
95 87 90 102 114 139 117 135 110 105 99 98 112 130 115 123 137 146 154 152 147 147 138 129 127 125 120 115 107 95 77 57 35 22 14 12 10 4 359 357 358 358 359 358 356 355 354 351 349 348 347 347 347 346
Height
1500 1502 1504 1506 1509 1512 1515 1515 1517 1518 1519 1519 1519 1518 1517 1518 1517 1519 1520 1520 1522 1517 1512 1514 1515 1513 1512 1515 1515 1513 1513 1505 1501 1502 1498 1493 1489 1482 1477 1472 1478 1480 1485 1489 1491 1491 1478 1440 1442 1443 1439 1434 1432 1431
1496 1498 1502 1504 1507 1508 1512 1514 1515 1516 1517 1517 1519 1517 1516 1515 1516 1516 1516 1517 1516 1514 1507 1505 1506 1509 1505 1506 1509 1510 1512 1508 1505 1497 1496 1494 1486 1482 1479 1474 1469 1472 1463 1468 1467 1458 1442 1441 1439 1437 1436 1434 1432 1431
1495 1496 1500 1502 1505 1507 1509 1512 1511 1513 1515 1515 1516 1515 1515 1512 1513 1513 1512 1511 1513 1509 1499 1494 1493 1491 1498 1495 1502 1504 1504 1504 1504 1503 1501 1495 1488 1483 1477 1474 1465 1458 1454 1458 1455 1440 1438 1438 1438 1436 1435 1433 1432 1431
1492 1496 1499 1501 1503 1506 1506 1509 1510 1510 1512 1513 1513 1514 1514 1512 1510 1509 1510 1510 1510 1507 1499 1485 1482 1483 1484 1490 1491 1491 1491 1497 1498 1498 1497 1492 1488 1479 1473 1470 1467 1458 1454 1450 1448 1439 1435 1434 1434 1435 1433 1431 1429 1429
1490 1494 1496 1499 1502 1504 1505 1506 1508 1507 1507 1510 1510 1510 1510 1508 1506 1505 1505 1504 1504 1505 1490 1481 1478 1477 1477 1478 1478 1478 1482 1485 1487 1489 1485 1481 1479 1481 1471 1467 1442 1454 1450 1447 1439 1437 1438 1433 1432 1433 1430 1427 1426 1425
1485 1490 1494 1496 1500 1501 1503 1506 1506 1504 1505 1507 1505 1505 1506 1504 1503 1502 1498 1497 1496 1496 1493 1479 1467 1465 1463 1460 1462 1465 1470 1475 1479 1475 1471 1468 1470 1471 1462 1443 1430 1437 1439 1441 1434 1435 1433 1431 1430 1431 1428 1425 1424 1424
1484 1487 1489 1494 1496 1498 1500 1501 1502 1502 1501 1502 1501 1499 1501 1499 1499 1499 1498 1494 1494 1493 1491 1479 1464 1455 1452 1454 1458 1460 1465 1464 1466 1464 1458 1461 1460 1460 1447 1424 1432 1429 1428 1430 1430 1431 1428 1427 1424 1425 1426 1425 1423 1422
1484 1486 1488 1491 1495 1496 1497 1497 1499 1497 1497 1497 1496 1494 1494 1491 1490 1487 1483 1487 1491 1492 1491 1479 1465 1459 1453 1452 1452 1451 1453 1455 1453 1448 1444 1444 1447 1444 1428 1401 1413 1416 1418 1418 1417 1416 1414 1416 1417 1417 1421 1421 1419 1418
1482 1484 1486 1489 1492 1493 1495 1495 1495 1493 1494 1493 1491 1488 1483 1477 1477 1476 1475 1478 1480 1486 1477 1467 1465 1461 1446 1445 1447 1448 1448 1444 1440 1433 1433 1439 1432 1421 1394 1385 1397 1404 1407 1407 1408 1407 1407 1407 1408 1409 1413 1414 1413 1413
1479 1481 1484 1487 1490 1492 1490 1491 1491 1492 1492 1487 1485 1481 1475 1473 1475 1476 1472 1470 1470 1466 1461 1450 1449 1446 1446 1444 1443 1445 1437 1433 1426 1420 1421 1418 1402 1390 1391 1384 1386 1390 1394 1397 1399 1398 1397 1397 1398 1399 1402 1404 1407 1408
1476 1480 1481 1485 1487 1488 1490 1490 1488 1488 1485 1484 1482 1477 1474 1471 1470 1469 1466 1460 1453 1449 1441 1433 1435 1435 1439 1439 1440 1439 1425 1420 1417 1413 1412 1403 1388 1381 1381 1381 1375 1379 1382 1383 1384 1384 1385 1387 1388 1391 1395 1398 1400 1402
1475 1476 1480 1484 1486 1485 1486 1485 1485 1483 1483 1482 1480 1473 1467 1465 1463 1462 1454 1441 1438 1437 1429 1428 1427 1427 1428 1430 1430 1422 1417 1414 1403 1400 1400 1390 1382 1378 1375 1372 1367 1367 1368 1369 1371 1374 1377 1380 1384 1387 1388 1391 1394 1398
1473 1475 1478 1480 1480 1482 1482 1481 1480 1479 1478 1475 1473 1471 1466 1462 1460 1451 1447 1440 1440 1436 1433 1434 1429 1421 1420 1421 1418 1409 1404 1398 1396 1393 1385 1382 1383 1378 1372 1366 1360 1356 1354 1356 1359 1364 1369 1375 1378 1380 1382 1386 1389 1394
1470 1472 1474 1475 1476 1478 1477 1476 1476 1475 1475 1475 1472 1468 1463 1454 1449 1449 1448 1445 1442 1438 1435 1432 1427 1420 1412 1411 1405 1397 1395 1393 1385 1383 1380 1386 1382 1377 1371 1365 1359 1353 1351 1350 1354 1360 1366 1370 1373 1377 1383 1385 1388 1392
1467 1469 1471 1472 1472 1472 1472 1472 1471 1471 1472 1472 1470 1462 1455 1447 1447 1445 1444 1442 1439 1436 1432 1428 1423 1417 1407 1404 1399 1397 1392 1391 1391 1394 1393 1390 1384 1378 1372 1367 1361 1355 1352 1352 1355 1359 1363 1368 1372 1377 1380 1383 1389 1393
1464 1466 1467 1467 1467 1468 1468 1467 1466 1466 1466 1466 1461 1454 1448 1447 1443 1442 1440 1438 1436 1433 1431 1427 1420 1407 1398 1396 1393 1393 1399 1399 1402 1400 1397 1392 1386 1381 1375 1370 1364 1360 1359 1359 1360 1361 1365 1368 1373 1376 1382 1384 1390 1396
1461 1462 1464 1464 1464 1463 1463 1462 1461 1461 1460 1456 1450 1448 1447 1444 1441 1439 1437 1435 1434 1432 1427 1419 1410 1403 1402 1401 1405 1406 1409 1407 1406 1402 1399 1395 1390 1385 1380 1375 1371 1368 1368 1369 1369 1373 1376 1378 1380 1382 1385 1390 1397 1403
1458 1460 1460 1460 1459 1459 1457 1457 1457 1456 1453 1449 1447 1445 1444 1443 1439 1436 1433 1431 1431 1426 1422 1416 1415 1411 1409 1409 1410 1411 1411 1411 1409 1405 1403 1399 1396 1391 1387 1384 1383 1381 1381 1382 1383 1385 1386 1388 1389 1393 1398 1403 1407 1411
1455 1456 1456 1456 1456 1456 1455 1455 1454 1451 1447 1446 1444 1443 1442 1440 1437 1433 1429 1425 1422 1422 1422 1420 1421 1422 1421 1416 1414 1414 1414 1413 1412 1410 1408 1406 1403 1400 1398 1396 1395 1394 1394 1395 1396 1396 1398 1399 1402 1406 1410 1413 1414 1417
1452 1452 1452 1452 1452 1452 1452 1451 1451 1448 1445 1445 1443 1442 1441 1440 1437 1432 1426 1422 1420 1422 1425 1427 1429 1428 1425 1421 1419 1418 1417 1417 1416 1414 1414 1413 1412 1410 1408 1407 1406 1406 1406 1406 1407 1408 1408 1410 1413 1417 1419 1420 1420 1421
1449 1449 1449 1449 1449 1450 1449 1447 1447 1446 1444 1443 1442 1441 1440 1439 1437 1433 1429 1425 1425 1431 1433 1434 1432 1428 1425 1423 1422 1421 1420 1421 1420 1419 1420 1419 1419 1417 1416 1416 1416 1415 1415 1416 1416 1417 1418 1419 1422 1423 1424 1425 1426 1427
1446 1446 1446 1446 1447 1447 1446 1446 1446 1444 1444 1442 1442 1440 1439 1439 1438 1437 1436 1434 1438 1441 1439 1437 1433 1430 1427 1425 1426 1426 1427 1426 1426 1425 1425 1425 1425 1424 1424 1424 1424 1424 1424 1425 1425 1425 1426 1427 1428 1428 1429 1429 1430 1430
1444 1444 1444 1444 1445 1444 1446 1444 1444 1443 1443 1441 1441 1441 1441 1441 1440 1440 1441 1445 1446 1445 1442 1439 1437 1435 1433 1432 1432 1432 1432 1431 1430 1430 1431 1431 1431 1430 1430 1430 1430 1430 1430 1431 1431 1431 1431 1431 1431 1432 1432 1432 1432 1433
1441 1442 1442 1442 1443 1443 1443 1443 1443 1443 1442 1443 1444 1445 1444 1443 1442 1443 1448 1450 1450 1447 1444 1442 1440 1439 1438 1436 1435 1436 1436 1436 1436 1436 1436 1437 1437 1436 1435 1435 1435 1435 1435 1435 1435 1435 1435 1434 1434 1434 1434 1434 1434 1434
1442 1444 1444 1443 1443 1443 1445 1445 1445 1444 1450 1449 1448 1447 1445 1444 1447 1450 1450 1452 1450 1448 1446 1445 1444 1442 1441 1441 1441 1441 1441 1442 1441 1440 1441 1442 1441 1441 1440 1439 1438 1438 1438 1439 1438 1438 1437 1437 1437 1436 1436 1435 1435 1435
1443 1443 1443 1444 1444 1444 1446 1448 1450 1450 1450 1450 1449 1447 1446 1447 1453 1457 1454 1452 1451 1450 1449 1448 1447 1446 1445 1445 1445 1445 1445 1445 1445 1444 1445 1445 1445 1445 1443 1442 1442 1441 1441 1441 1440 1440 1439 1439 1438 1438 1437 1437 1436 1435
1444 1444 1443 1443 1444 1444 1446 1446 1447 1447 1452 1452 1449 1449 1451 1461 1461 1456 1454 1453 1452 1451 1450 1448 1448 1447 1447 1448 1448 1447 1448 1448 1449 1449 1448 1448 1448 1447 1446 1445 1443 1444 1443 1443 1442 1441 1440 1440 1439 1438 1437 1436 1436 1435
1440 1442 1444 1445 1444 1445 1446 1448 1449 1451 1449 1448 1448 1454 1457 1457 1457 1456 1455 1455 1454 1453 1453 1452 1452 1452 1452 1452 1452 1452 1452 1452 1452 1451 1451 1451 1450 1449 1448 1447 1446 1445 1444 1443 1443 1442 1441 1441 1440 1438 1437 1437 1436 1434
1441 1442 1444 1445 1446 1446 1448 1448 1449 1449 1448 1448 1449 1452 1453 1454 1455 1455 1456 1456 1456 1456 1456 1456 1455 1454 1454 1454 1454 1455 1454 1454 1454 1453 1453 1453 1452 1451 1449 1448 1446 1445 1444 1443 1442 1441 1441 1440 1438 1438 1437 1436 1435 1434
1442 1442 1443 1445 1447 1449 1449 1448 1449 1449 1449 1448 1449 1452 1453 1455 1455 1456 1456 1456 1457 1457 1458 1458 1457 1457 1457 1457 1457 1457 1457 1457 1457 1457 1456 1454 1454 1453 1451 1450 1448 1447 1445 1444 1442 1441 1440 1439 1438 1436 1435 1434 1433 1432
1441 1442 1443 1445 1447 1449 1449 1449 1450 1450 1450 1450 1451 1451 1453 1455 1457 1457 1457 1457 1457 1458 1458 1459 1459 1460 1460 1460 1461 1461 1460 1460 1459 1458 1457 1456 1456 1455 1454 1452 1450 1448 1447 1445 1443 1441 1440 1438 1437 1435 1434 1433 1431 1430
1441 1441 1442 1446 1449 1450 1450 1450 1451 1451 1453 1453 1454 1455 1456 1456 1457 1458 1459 1459 1459 1459 1460 1460 1461 1461 1461 1461 1462 1462 1462 1462 1461 1461 1461 1460 1459 1458 1456 1454 1452 1450 1447 1445 1443 1441 1439 1437 1436 1434 1432 1431 1429 1427
1442 1442 1443 1445 1447 1449 1450 1450 1451 1453 1453 1454 1455 1456 1456 1457 1458 1459 1459 1460 1460 1461 1461 1462 1462 1463 1463 1464 1464 1464 1464 1464 1464 1463 1463 1461 1460 1458 1456 1454 1452 1450 1447 1445 1443 1441 1438 1436 1434 1432 1431 1429 1427 1426